ONEWEB-0006, 44061

Orbit data source: Space-Track

ONEWEB-0006, 44061 is a payload satellite owned by One Web (UK) in LEO that was launched on Wed, 27 Feb 2019 UTC via a SOYUZ-ST-B launch vehicle from the French Guiana (FRGUI). Payloads include a variety of satellites, spacecraft, and rockets equipped with specific instruments for various scientific and technological missions. These include communications satellites like Starlink; space stations such as the ISS; scientific satellites like the Hubble; Earth observation satellites from companies like Planet Labs, Umbra, and HawkEye 360; GPS; miniature CubeSats for education and research; and military/defense satellites.

Loading next visibility...
ONEWEB-0006 details
Identifier
44061, 2019-010E
Orbit
LEO
Last TLE update17 hours ago
Origin
Flag of UKOne Web (UK)
ManufacturerAirbus/Toulouse
MissionOperational Commercial Communications
Bus & MotorARROW, Unknown motor
Mass148 kg wet, ~140 kg dry
Launch date (UTC)
2019-02-27 (6 years ago)
Launch vehicle
SOYUZ-ST-B
Launch site
French Guiana (FRGUI)
Object type
Payload
Rocket body
Debris
Shape & HBRTrap Box + 2 Pan, 5 m
Radar Cross Section2.957 m², Large (>1 m²)

Expand to show TLE details & history

TLE from 17 hours ago
0 ONEWEB-0006
1 44061U 19010E   25014.47991351  .00000143  00000-0  34565-3 0  9991
2 44061  87.9072   2.4575 0001643  96.4854 263.6463 13.15547861283221
Epoch: 2025-01-14T11:31Z
Definitive object data (Epoch: 2025-01-14T11:31:04.527Z)
Latitude-0.00005°
Longitude75.50263°
Altitude1,204.807 km
Speed7.252 km/s
True Right ascension00h 09m 49s
True Declination0° 00' 00"
Sunlit
Object was in daylight at TLE epoch
Visualization TLE readout
Latitude58.88738°
Longitude78.81788°
Altitude1,210.787 km
Speed7.255 km/s
Apparent Right ascension20h 01m 09s
Apparent Declination25° 45' 48"
Sunlit
Object is in daylight
Visualization observer readout
Local Sidereal Time04:53:40
Azimuth317.939° NNW
Elevation-11.146°
Doppler factor1
Orbital elements
Apogee altitude1,200.13 km
Perigee altitude1,197.64 km
Semi-major axis7,577.022 km
Eccentricity0.0001643
Inclination87.9072°
RAAN2.4575°
Arg. of periapsis96.4854°
True anomaly263.62759°
Mean anomaly263.6463°
Eccentric anomaly263.63694°
Mean motion3.29075 °/min
BSTAR0.00034565
Orbital period109.4 mins
Loading maneuver chart data...
Loading historical data...
Loading historical data...
Loading historical data...
Loading historical data...
Loading historical data...
Loading historical data...
Loading historical data...

ONEWEB-0006 Visibility forecast

Observer location: undefined°, undefined

Span
Click to sort rows by Start time (UTC) header in descending order
Start Az.
Max El. time (UTC)
Max El. Az.
Max El.
End time (UTC)
End Az.
11 mins2025-01-15 10:01:38.965Z22.741° NE2025-01-15 10:07:38.965Z80.53° E24.915°2025-01-15 10:12:38.965Z130.114° SE
12 mins2025-01-15 11:51:38.965Z345.945° N2025-01-15 11:57:38.965Z266.954° W38.028°2025-01-15 12:03:38.965Z204.479° SW
10 mins2025-01-15 22:19:38.965Z129.354° SE2025-01-15 22:24:38.965Z76.872° E26.53°2025-01-15 22:29:38.965Z26.058° NE
12 mins2025-01-16 00:08:38.965Z209.334° SW2025-01-16 00:13:38.965Z273.33° WNW36.621°2025-01-16 00:20:38.965Z349.21° N
|